This demonstration page uses our WeatherBlox Daily Observations layout. Learn more.

Left ArrowRight Arrow

40.92945, -100.16068

Hourly Observations for April 15, 2020

Temp ( °F °C ) Dew Point ( °F °C ) Humidity (%) Winds ( mph kmh ) Pressure ( in mb ) Visibility ( mi km ) Precip ( " mm )
12:15 am 00:15 Clear 29 -1.9 26 -3.6 88 88 NNE 5 7 30.21 1023 10 16 0.00 0.00
12:35 am 00:35 Clear 27 -3 24 -4.4 90 90 N 7 11 30.23 1024 10 16 0.00 0.00
12:55 am 00:55 Partly Cloudy 26 -3.5 24 -4.6 92 92 N 6 9 30.22 1023 10 16 0.00 0.00
1:15 am 01:15 Partly Cloudy 24 -4.3 22 -5.4 92 92 N 7 11 30.23 1024 10 16 0.00 0.00
1:35 am 01:35 Clear 23 -5 21 -5.9 93 93 N 8 13 30.24 1024 10 16 0.00 0.00
1:55 am 01:55 Clear 24 -4.6 22 -5.6 93 93 Calm 30.24 1024 10 16 0.00 0.00
2:15 am 02:15 Clear 22 -5.5 20 -6.5 93 93 WSW 5 7 30.26 1025 10 16 0.00 0.00
2:35 am 02:35 Clear 23 -4.8 21 -5.9 92 92 Calm 30.25 1024 10 16 0.00 0.00
2:55 am 02:55 Clear 23 -5.2 21 -6 94 94 W 6 9 30.24 1024 10 16 0.00 0.00
3:15 am 03:15 Clear 23 -5.1 22 -5.7 96 96 W 3 6 30.24 1024 10 16 0.00 0.00
3:35 am 03:35 Clear 20 -6.9 18 -7.8 93 93 WNW 5 7 30.25 1024 10 16 0.00 0.00
3:55 am 03:55 Clear 20 -6.9 18 -7.8 93 93 WNW 3 6 30.25 1024 10 16 0.00 0.00
4:15 am 04:15 Clear 19 -7.2 18 -8 94 94 NW 3 6 30.24 1024 10 16 0.00 0.00
4:35 am 04:35 Clear 18 -7.6 17 -8.4 94 94 NNW 5 7 30.25 1024 10 16 0.00 0.00
4:55 am 04:55 Clear 18 -7.6 17 -8.6 93 93 NW 3 6 30.25 1024 10 16 0.00 0.00
5:15 am 05:15 Clear 19 -7.3 17 -8.5 91 91 WNW 7 11 30.25 1024 10 16 0.00 0.00
5:35 am 05:35 Clear 18 -8 16 -8.9 93 93 NW 7 11 30.26 1025 10 16 0.00 0.00
5:55 am 05:55 Mostly Cloudy 20 -6.9 18 -7.8 93 93 NW 7 11 30.24 1024 10 16 0.00 0.00
6:15 am 06:15 Partly Cloudy 21 -6.3 19 -7.4 92 92 NW 9 15 30.23 1024 10 16 0.00 0.00
6:35 am 06:35 Clear 20 -6.8 18 -7.9 92 92 WNW 7 11 30.24 1024 10 16 0.00 0.00
6:55 am 06:55 Clear 20 -6.5 19 -7.5 93 93 W 7 11 30.24 1024 10 16 0.00 0.00
7:15 am 07:15 Sunny 20 -6.5 18 -7.7 91 91 Calm 30.24 1024 10 16 0.00 0.00
7:35 am 07:35 Partly Cloudy 22 -5.8 20 -6.8 93 93 W 3 6 30.25 1024 10 16 0.00 0.00
7:55 am 07:55 Partly Cloudy 24 -4.6 22 -5.4 94 94 Calm 30.22 1023 10 16 0.00 0.00
8:15 am 08:15 Sunny 26 -3.3 24 -4.7 90 90 Calm 30.22 1023 10 16 0.00 0.00
8:35 am 08:35 Partly Cloudy 29 -1.9 25 -3.7 88 88 Calm 30.21 1023 10 16 0.00 0.00
8:55 am 08:55 Mostly Cloudy 31 -0.3 27 -3 82 82 Calm 30.19 1022 10 16 0.00 0.00
9:15 am 09:15 Cloudy 32 0 27 -2.8 82 82 Calm 30.18 1022 10 16 0.00 0.00
9:35 am 09:35 Cloudy 33 0.8 28 -2.5 79 79 Calm 30.17 1022 10 16 0.00 0.00
9:55 am 09:55 Mostly Cloudy 37 2.6 29 -1.8 73 73 S 5 7 30.14 1021 10 16 0.00 0.00
10:15 am 10:15 Mostly Cloudy 38 3.1 27 -2.9 65 65 SSW 3 6 30.14 1021 10 16 0.00 0.00
10:35 am 10:35 Cloudy 40 4.2 23 -5 52 52 S 7 11 30.12 1020 10 16 0.00 0.00
10:55 am 10:55 Cloudy 40 4.7 22 -5.5 48 48 SSE 7 11 30.11 1020 10 16 0.00 0.00
11:15 am 11:15 Cloudy 42 5.4 22 -5.3 46 46 ESE 6 9 30.10 1019 10 16 0.00 0.00
11:35 am 11:35 Mostly Cloudy 45 7.1 24 -4.2 45 45 SSW 8 13 30.09 1019 10 16 0.00 0.00
11:55 am 11:55 Mostly Cloudy 45 7.4 25 -3.8 45 45 SSW 8 13 30.08 1018 10 16 0.00 0.00
12:15 pm 12:15 Cloudy 45 7.3 24 -4.4 44 44 S 3 6 30.08 1018 10 16 0.00 0.00
12:35 pm 12:35 Cloudy 46 7.6 26 -3.6 45 45 S 7 11 30.06 1018 10 16 0.00 0.00
12:55 pm 12:55 Mostly Cloudy 48 8.9 26 -3.2 43 43 SSW 7 11 30.04 1017 10 16 0.00 0.00
1:15 pm 13:15 Partly Cloudy 47 8.5 25 -3.7 42 42 SSW 10 17 30.04 1017 10 16 0.00 0.00
1:35 pm 13:35 Sunny 49 9.6 26 -3.4 40 40 S 9 15 30.01 1016 10 16 0.00 0.00
1:55 pm 13:55 Partly Cloudy 50 9.8 26 -3.6 39 39 SW 8 13 30.01 1016 10 16 0.00 0.00
2:15 pm 14:15 Partly Cloudy 51 10.4 29 -1.8 43 43 SSW 7 11 30.00 1016 10 16 0.00 0.00
2:35 pm 14:35 Partly Cloudy 51 10.8 27 -2.9 38 38 S 15 24 29.98 1015 10 16 0.00 0.00
2:55 pm 14:55 Mostly Cloudy 53 11.6 27 -2.6 37 37 S 7 11 29.98 1015 10 16 0.00 0.00
3:15 pm 15:15 Mostly Cloudy 54 12 28 -2.2 37 37 SSE 12 19 29.96 1015 10 16 0.00 0.00
3:35 pm 15:35 Cloudy 53 11.8 28 -2.1 38 38 SSW 9 15 29.95 1014 10 16 0.00 0.00
3:55 pm 15:55 Cloudy 53 11.7 28 -2.2 38 38 S 7 11 29.95 1014 10 16 0.00 0.00
4:15 pm 16:15 Mostly Cloudy 54 12 29 -1.7 39 39 SSE 8 13 29.92 1013 10 16 0.00 0.00
4:35 pm 16:35 Mostly Cloudy 55 12.9 30 -1.1 38 38 SSE 13 20 29.91 1013 10 16 0.00 0.00
4:55 pm 16:55 Mostly Cloudy 55 12.8 29 -1.6 37 37 S 7 11 29.91 1013 10 16 0.00 0.00
5:15 pm 17:15 Cloudy 55 12.5 29 -1.9 37 37 S 9 15 29.91 1013 10 16 0.00 0.00
5:35 pm 17:35 Cloudy 54 12.4 28 -2.2 36 36 SSW 9 15 29.92 1013 10 16 0.00 0.00
5:55 pm 17:55 Cloudy with Light Rain 51 10.5 32 -0.1 48 48 W 10 17 29.95 1014 7 11 0.00 0.00
6:15 pm 18:15 Mostly Cloudy 51 10.8 32 0 48 48 SSW 13 20 29.94 1014 10 16 0.00 0.00
6:35 pm 18:35 Partly Cloudy 52 11 32 0 47 47 SSW 10 17 29.94 1014 10 16 0.00 0.00
6:55 pm 18:55 Partly Cloudy 52 11.1 32 -0.1 46 46 SSW 10 17 29.93 1014 10 16 0.00 0.00
7:15 pm 19:15 Sunny 52 11 32 -0.1 47 47 SSW 10 17 29.93 1014 10 16 0.00 0.00
7:35 pm 19:35 Sunny 52 11.1 31 -0.5 45 45 SSW 12 19 29.93 1014 10 16 0.00 0.00
7:55 pm 19:55 Sunny 51 10.5 32 -0.2 48 48 SSW 9 15 29.95 1014 10 16 0.00 0.00
8:15 pm 20:15 Mostly Cloudy 50 9.9 32 -0.1 50 50 SW 7 11 29.96 1015 10 16 0.00 0.00
8:35 pm 20:35 Cloudy 48 9.1 32 0.1 54 54 N 20 31 30.00 1016 10 16 0.00 0.00
8:55 pm 20:55 Cloudy 46 7.6 38 3.2 74 74 N 17 28 30.03 1017 10 16 0.00 0.00
9:15 pm 21:15 Cloudy 46 7.5 38 3.1 74 74 N 20 31 30.03 1017 10 16 0.00 0.00
9:35 pm 21:35 Cloudy 46 8 37 2.6 69 69 NNE 7 11 30.04 1017 10 16 0.00 0.00
9:55 pm 21:55 Cloudy 44 6.6 36 2.3 74 74 N 8 13 30.07 1018 10 16 0.00 0.00
10:15 pm 22:15 Partly Cloudy 42 5.3 37 2.7 84 84 N 18 30 30.10 1019 10 16 0.00 0.00
10:35 pm 22:35 Mostly Cloudy 40 4.2 37 2.7 90 90 NNE 13 20 30.13 1020 10 16 0.00 0.00
10:55 pm 22:55 Partly Cloudy 38 3.6 36 2.4 92 92 NNE 14 22 30.14 1021 10 16 0.00 0.00
11:15 pm 23:15 Clear 37 2.7 36 2 95 95 NNE 13 20 30.15 1021 10 16 0.00 0.00
11:35 pm 23:35 Clear 37 2.5 36 2 97 97 NNE 13 20 30.14 1021 10 16 0.00 0.00
11:55 pm 23:55 Clear 37 2.5 35 1.7 95 95 NNE 12 19 30.15 1021 10 16 0.00 0.00

Powered by AerisWeather